Location: New Mesquite
(33.1168°N, 96.4336°W)
Time: 17:56:53
(UTC+00:00)

OPS-SAT - Visible Passes

Search period start: 06 October 2022 00:00
Search period end: 16 October 2022 00:00
Orbit: 492 x 508 km, 97.5° (Epoch: 06 October)

Date Brightness Start Highest point End Pass type
(mag) Time Alt. Az. Time Alt. Az. Time Alt. Az.
06 Oct ? 00:26:24 10° NNE 00:30:07 76° E 00:33:49 10° S visible
06 Oct ? 11:01:26 10° ESE 11:03:48 17° ENE 11:06:12 10° NNE visible
07 Oct ? 01:43:03 10° NW 01:43:50 11° WNW 01:44:39 10° W visible
08 Oct ? 01:21:46 10° NNW 01:24:25 19° WNW 01:27:03 10° WSW visible
08 Oct ? 11:54:23 10° S 11:58:02 85° W 12:01:44 10° NNW visible
09 Oct ? 01:01:31 10° N 01:04:53 33° WNW 01:08:14 10° SW visible
09 Oct ? 11:34:53 10° SSE 11:38:24 48° ENE 11:41:58 10° N visible
10 Oct ? 00:41:35 10° N 00:45:16 64° WNW 00:48:56 10° SSW visible
10 Oct ? 11:15:44 10° SE 11:18:48 26° ENE 11:21:53 10° NNE visible
11 Oct ? 00:21:53 10° NNE 00:25:35 64° E 00:29:14 10° S visible
11 Oct ? 10:57:09 10° ESE 10:59:13 15° ENE 11:01:17 10° NE visible
12 Oct ? 01:37:38 10° NW 01:39:10 12° WNW 01:40:41 10° W visible
13 Oct ? 01:16:39 10° NNW 01:19:32 21° WNW 01:22:24 10° WSW visible
13 Oct ? 11:49:23 10° SSE 11:53:02 80° ENE 11:56:44 10° N visible
14 Oct ? 00:56:20 10° N 00:59:49 39° WNW 01:03:16 10° SW visible
14 Oct ? 11:29:48 10° SE 11:33:15 40° ENE 11:36:44 10° N visible
15 Oct ? 00:36:18 10° N 00:40:01 78° W 00:43:41 10° SSW visible
15 Oct ? 11:10:37 10° ESE 11:13:29 22° ENE 11:16:22 10° NNE visible
